Date,TemperatureHighF,TemperatureAvgF,TemperatureLowF,DewpointHighF,DewpointAvgF,DewpointLowF,HumidityHigh,HumidityAvg,HumidityLow,PressureMaxIn,PressureMinIn,WindSpeedMaxMPH,WindSpeedAvgMPH,GustSpeedMaxMPH,PrecipitationSumIn
2013-3-1,31,28,24,30,21,18,94,78,65,0.00,40.00,11,7,15,0.00
2013-3-2,31,24,15,18,13,8,77,63,45,0.00,40.00,9,6,14,0.00
2013-3-3,36,22,10,16,11,8,90,64,38,0.00,40.00,5,2,6,0.00
2013-3-4,36,31,25,28,22,12,89,70,56,0.00,40.00,14,9,21,0.00
2013-3-5,34,31,27,31,28,24,95,88,79,0.00,40.00,16,8,23,0.00
2013-3-6,31,27,22,24,20,18,88,76,65,0.00,40.00,11,7,17,0.00
2013-3-7,39,30,25,24,22,20,84,72,53,0.00,40.00,8,3,9,0.00
2013-3-8,45,35,24,32,27,22,91,74,58,0.00,40.00,12,7,16,0.00
2013-3-9,49,41,36,40,35,30,95,81,68,0.00,40.00,14,10,21,0.00
2013-3-10,51,47,44,50,45,39,95,93,73,0.00,40.00,15,6,19,0.00
2013-3-11,45,36,30,43,33,23,95,89,75,0.00,40.00,16,10,26,0.00
2013-3-12,37,30,26,30,23,15,88,75,62,0.00,40.00,19,11,26,0.00
2013-3-13,36,28,22,19,16,13,77,61,39,0.00,40.00,16,8,23,0.00
2013-3-14,46,33,24,29,24,18,85,71,48,0.00,40.00,16,5,19,0.00
2013-3-15,53,41,30,40,33,28,92,77,50,0.00,40.00,8,4,11,0.00
2013-3-16,42,36,31,40,30,24,96,81,60,0.00,40.00,13,7,18,0.00
2013-3-17,38,32,28,26,24,20,83,71,60,0.00,40.00,12,8,17,0.00
2013-3-18,39,32,25,34,27,12,95,80,56,0.00,40.00,22,9,29,0.00
2013-3-19,39,28,19,14,11,7,63,50,34,0.00,40.00,19,11,26,0.00
2013-3-30,58,53,48,43,38,-100,85,62,50,0.00,40.00,16,8,23,0.00
2013-3-31,59,50,39,44,37,23,93,65,34,0.00,40.00,16,9,24,0.00